Regional Weather Roundup
Issued by NWS Cleveland, OH

Home | Current Version | Previous Version | Graphics & Text | Print | Product List | Glossary On
Versions: 1 2 3 4 5 6 7 8 9 10 11 12 13 14 15 16 17 18 19 20 21 22 23 24 25 26 27 28 29 30 31 32 33 34 35 36 37 38 39 40 41 42 43 44 45 46 47 48 49 50
000
ASUS41 KCLE 242012
RWRCLE
OHIO REGIONAL WEATHER ROUNDUP
NATIONAL WEATHER SERVICE WILMINGTON, OH
400 PM EDT SUN SEP 24 2017

NOTE: "FAIR" INDICATES FEW OR NO CLOUDS BELOW 12,000 FEET WITH NO
SIGNIFICANT WEATHER AND/OR OBSTRUCTIONS TO VISIBILITY.

OHZ001>008-015>018-024>027-034-035-043-044-242100-
   NORTHWEST OHIO

CITY           SKY/WX    TMP DP  RH WIND       PRES   REMARKS
DEFIANCE       FAIR      90  55  30 SE9       30.07F
FINDLAY        FAIR      91  56  30 E9        30.07F
TOLEDO EXPRESS FAIR      92  60  34 VRB5      30.08F HX  91
TOLEDO EXEC    FAIR      89  63  41 NE9       30.09F HX  90
LIMA           FAIR      90  56  31 E8        30.08F
$$

OHZ009>014-019>023-028>033-038-089-242100-
   NORTHEAST OHIO

CITY           SKY/WX    TMP DP  RH WIND       PRES   REMARKS
CLE-HOPKINS    FAIR      90  66  45 N13       30.11F HX  92
CLE-LAKEFRONT  FAIR      80  68  66 NE12      30.09F
CUY CO. ARPT   SUNNY     91  68  46 NE10      30.11F HX  95
LORAIN-ELYRIA  FAIR      87  63  44 NE10      30.10F
ASHTABULA      FAIR      88  65  46 NE7       30.12F HX  90
AKRON-CANTON   FAIR      91  57  31 E8        30.11F
WOOSTER        FAIR      89  57  33 E6        30.11F
MANSFIELD      FAIR      89  60  37 E10       30.11F
YOUNGSTOWN     FAIR      89  63  41 E8        30.11F HX  90
$$

OHZ042-051>053-060>062-070>072-077>081-242100-
  SOUTHWEST OHIO

CITY           SKY/WX    TMP DP  RH WIND       PRES   REMARKS
CINC-COVINGTON FAIR      89  56  32 SE9       30.06F
CINC-LUNKEN    FAIR      90  52  27 SE7       30.05F
HAMILTON       FAIR      89  54  30 E9        30.06F
DAYTON         FAIR      88  53  30 SE13G22   30.08F
WRIGHT-PAT AFB FAIR      91  50  24 SE7       30.07F
DAYTON GENERAL FAIR      88  51  28 S12       30.07F
WILMINGTON     FAIR      86  54  33 SE9       30.08F
$$

OHZ036-037-039>041-045>050-054>059-063>069-073>076-082>088-242100-
  CENTRAL AND SOUTHEAST OHIO

CITY           SKY/WX    TMP DP  RH WIND       PRES   REMARKS
COLUMBUS       FAIR      90  59  35 E10G16    30.08F
OSU AIRPORT    FAIR      88  60  38 E9        30.08F
BOLTON FIELD   SUNNY     88  61  40 SE8G16    30.09F
RICKENBACK AFB FAIR      88  59  37 SE7       30.07F
NEWARK         FAIR      89  58  34 SE7       30.08F
MARION         FAIR      90  57  32 E9        30.09F
LANCASTER      FAIR      86  62  44 SE7       30.09F
ZANESVILLE     FAIR      90  57  32 E7        30.08F
NEW PHILLY     FAIR      93  58  30 E10       30.10F HX  92
$$




USA.gov is the U.S. government's official web portal to all federal, state and local government web resources and services.